CLASSIFICA

ORVIETO WINE MARATHON

GARA MTB KM 20 E KM 40

MORRANO DI ORVIETO 11/03/2018

DIVISIONI:
CORTO     LUNGO     CLASSIFICA:   ASSOLUTA    M     F    
CATEGORIE:   TUTTE    |   ELITE   |   ELITE SPORT   |   JUNIOR M   |   M OVER   |   M1   |   M2   |   M3   |   M4   |   M5   |   M6   |   W1   |   W2  
FILTRO:
  Atleta      Team        Pulisci       Atleti classificati LUNGO: 231  

Cliccare sulle colonne per cambiare ordinamento Pagina:   | 1 | | 2 | | 3 | | 4 | | 5 |
Azioni Pos. M/F Cat. P.Cat. Pett Naz Atleta Squadra Tempo Distacco in tempo Distacco in metri GIRO 1 GIRO 2
11ELITE12CRISI ROBERTOCANNONDALE RH-RACING02:04:42 00:00:00 0 00:59:36 01:05:06
22ELITE21CRISI EMANUELECANNONDALE RH-RACING02:04:44 00:00:02 10 00:59:37 01:05:07
33M11293GATTI GIOVANNITEAM CASTELLO RACE MOUNTAIN02:06:56 00:02:14 703 01:01:34 01:05:22
44M12287TALIANI CRISTIANONEW BIKE 2008 RACCING TEAM02:07:48 00:03:06 970 01:01:50 01:05:58
55ELITE38ANGELETTI MICHELEBIKE THERAPY A.S.D.02:08:08 00:03:26 1.071 01:02:04 01:06:04
66ELITE410CASELLA FRANCONEW BIKE 2008 RACCING TEAM02:09:59 00:05:17 1.625 01:03:32 01:06:27
77ELITE59CAPPONI STEFANOPRO BIKE RIDING TEAM02:10:11 00:05:29 1.684 01:01:53 01:08:18
88ELITE SPORT163BALLONI ALFREDOASD CUSTOM4.IT CYCLING TEAM02:10:34 00:05:52 1.797 01:03:28 01:07:06
99M2177BONINSEGNI LUCATEAM SCOTT PASQUINI STELLA AZZURRA02:13:21 00:08:39 2.594 01:05:30 01:07:51
1010M22285RISPOLI FEDERICOASD GC ARGENTARIO02:13:31 00:08:49 2.641 01:02:42 01:10:49
1111ELITE SPORT286CARACCIOLO LEONARDOASD SC CENTRO BICI TEAM TERNI02:15:26 00:10:44 3.170 01:03:33 01:11:53
1212M23286CELLINI ALESSIOCTM CENTRO DEDICATO AL CICLISMO ASD02:16:55 00:12:13 3.569 01:07:19 01:09:36
1313ELITE SPORT3294PIANCATELLI VALERIOASD TEAM PALOMBARA SABINA (CSI)02:17:37 00:12:55 3.754 01:04:19 01:13:18
1414M13195MORONCI CLAUDIOBIKE THERAPY ASD02:18:06 00:13:24 3.881 01:07:27 01:10:39
1515ELITE SPORT4291CIUTI LORENZOASD CUSTOM4.IT CYCLING TEAM02:19:12 00:14:30 4.166 01:04:31 01:14:41
1616ELITE614GIUSERI SAMUELEPRO BIKE RIDING TEAM02:19:13 00:14:31 4.170 01:06:24 01:12:49
1717ELITE SPORT5114DI EMIDIO GIANLUCACASTELTROSINO SUPERBIKE02:19:46 00:15:04 4.311 01:06:59 01:12:47
1818M31156GRELLI EMANUELESC PARLESCA TEAM MOTORPOINT02:21:11 00:16:29 4.670 01:07:44 01:13:27
1919M51288GRASSI ZEFFERINOKENTO RACING TEAM02:23:00 00:18:18 5.118 01:10:04 01:12:56
2020M41223PEZZOTTI ANDREAASD TEAM BIKE CIVITAVECCHIA02:23:53 00:19:11 5.333 01:08:05 01:15:48
2121ELITE711DE SANTIS ALESSANDROMTB CLUB SPOLETO02:25:19 00:20:37 5.674 01:09:46 01:15:33
2222JUNIOR M1292MARRA EDOARDOASD CUSTOM 4 TEAM02:26:00 00:21:18 5.835 01:13:24 01:12:36
2323M52132FROSINI FABIOGS TESTI CICLI ASD02:26:17 00:21:35 5.901 01:10:37 01:15:40
2424ELITE85RIDOLFI RICCARDOCIB MONTANINI ECO FUTURA02:26:55 00:22:13 6.048 01:06:23 01:20:32
2525JUNIOR M218FERILLI MATTIAG.S. TESTI CICLI A.S.D.02:27:00 00:22:18 6.068 01:13:13 01:13:47
2626M24254SASSINI MARCOCASTELTROSINO SUPERBIKE02:28:14 00:23:32 6.350 01:09:23 01:18:51
2727M14154GRASSINI ALESSANDRODIEFFE BIKE TEAM02:28:25 00:23:43 6.391 01:13:05 01:15:20
2828ELITE SPORT676BONIFAZI SIMONECIB MONTANINI ECO FUTURA02:28:38 00:23:56 6.440 01:10:34 01:18:04
2929M42198MOSTARDA DARIOMOUNTAN BIKE CLUB RIETI02:28:55 00:24:13 6.504 01:11:31 01:17:24
3030M5372BIONDI MASSIMOASD GRUPPO SPORTIVO MONDOBICI02:29:21 00:24:39 6.601 01:11:43 01:17:38
3131ELITE SPORT7104COMMODI VALENTINOASD MC2 BIKE02:29:26 00:24:44 6.620 01:11:56 01:17:30
3232M25162LAUDATI GRAZIANOASD FARAM CYCLING TEAM02:29:35 00:24:53 6.654 01:10:28 01:19:07
3333M15178MARCUCCI MIRCOASD SC CENTRO BICI TEAM TERNI02:31:16 00:26:34 7.025 01:09:28 01:21:48
3434M16276VITALE FRANCESCOASD GUSTATREVI MTB02:32:00 00:27:18 7.184 01:13:52 01:18:08
3535M32179MARIANANTONI GIOVANNIMOUNTAN BIKE CLUB RIETI02:34:35 00:29:53 7.732 01:13:05 01:21:30
3636M54188MENGHINI GIAMPIEROVELO CLUB CICLI CINGOLANI ASD02:35:07 00:30:25 7.843 01:14:57 01:20:10
3737M55467MASSARUCCI ERNELIOTRIONO RACING MEDICAL FREM02:35:35 00:30:53 7.940 01:15:02 01:20:33
3838M4358ANDREANI MICHELEGS TESTI CICLI ASD02:35:59 00:31:17 8.022 01:15:39 01:20:20
3939M17100CIUCCI MARCOASD MTB CASTIGLIONE DEL LAGO02:36:02 00:31:20 8.032 01:12:15 01:23:47
4040ELITE912FICORILLI MANUELNEW BIKE 2008 RACCING TEAM02:36:38 00:31:56 8.154 01:07:10 01:29:28
4141M26220PETRINI STEFANOASD MC2 BIKE02:37:37 00:32:55 8.353 01:15:11 01:22:26
4242M4451AGOSTINELLI LUCAUC PETRIGNANO ASD02:38:49 00:34:07 8.592 01:16:10 01:22:39
4343M45110CUCCHIARINI RINALDO LUCABIKERS NOCERA UMBRA02:39:14 00:34:32 8.674 01:14:22 01:24:52
4444M33112DE PROSPERIS GIULIOASD CUSTOM4.IT CYCLING TEAM02:39:23 00:34:41 8.704 01:18:56 01:20:27
4545M46118EDOARDINI MAURIZIOMOUNTAN BIKE CLUB RIETI02:39:45 00:35:03 8.776 01:14:55 01:24:50
4646M34186MASTRINI MARCOBIKERS NOCERA UMBRA02:40:09 00:35:27 8.854 01:15:04 01:25:05
4747M56488PIZZI ENRICOMOUNTAN BIKE CLUB RIETI02:40:11 00:35:29 8.860 01:14:58 01:25:13
4848M47290DOTTARELLI LUCAPRO TEAM EUROBICI ORVIETO02:41:26 00:36:44 9.101 01:15:08 01:26:18
4949M3589CERNICCHI WALTER GIANNIDIEFFE BIKE TEAM02:42:04 00:37:22 9.222 01:16:48 01:25:16
5050M61196MOSCHETTI MARIOSC PARLESCA TEAM MOTORPOINT02:42:11 00:37:29 9.244 01:19:19 01:22:52
5151M48474TIBURZI PAOLOASD CICLI FATATO02:42:41 00:37:59 9.339 01:16:06 01:26:35
5252M27466BONUCCHI ALESSANDROG.S.CICLOTECH02:43:02 00:38:20 9.405 01:16:07 01:26:55
5353M36249RUFINI LUCIANOMOUNTAN BIKE CLUB RIETI02:43:05 00:38:23 9.414 01:15:33 01:27:32
5454M37128FODARONI MAUROGS TESTI CICLI ASD02:44:53 00:40:11 9.748 01:18:53 01:26:00
5555M18634IALE SERGIOBIKE LAB02:45:09 00:40:27 9.797 01:14:36 01:30:33
5656M57155GRAZIUSO RAFFAELESC PARLESCA TEAM MOTORPOINT02:45:42 00:41:00 9.897 01:15:00 01:30:42
5757M5866BAROLA ROBERTOUC PETRIGNANO ASD02:46:47 00:42:05 10.092 01:19:44 01:27:03
5858M49182MARIOTTI FRANCESCOVELO CLUB CICLI CINGOLANI ASD02:48:12 00:43:30 10.344 01:16:34 01:31:38
5959M19457SORDI ALESSIOA.S.D. PEDALA CHE TI PASSA02:48:27 00:43:45 10.388 01:19:01 01:29:26
6060M41060ARCALENI CARLOUMBERTIDE CYCLING TEAM02:48:47 00:44:05 10.447 01:17:55 01:30:52
6161M110647CARDINALI FRANCESCOFACTORY TEAM BATTIFOLLE02:49:05 00:44:23 10.499 01:20:37 01:28:28
6262M111649ROSATI DANIELEFACTORY TEAM BATTIFOLLE02:49:18 00:44:36 10.537 01:14:33 01:34:45
6363M38202NICCACCI LEONARDOUC PETRIGNANO ASD02:49:19 00:44:37 10.540 01:19:17 01:30:02
6464M411491IACOBINI GIANFRANCOBIKE CENTER PRO TEAM MTB02:49:31 00:44:49 10.575 01:20:43 01:28:48
6565M39169LUZI LUIGICASTELTROSINO SUPERBIKE02:49:53 00:45:11 10.638 01:20:27 01:29:26
6666M6273BIROCCHI SANDROASD BICI CLUB SPOLETO CASTELLANI IMPIANTI02:50:08 00:45:26 10.681 01:23:02 01:27:06
6767ELITE SPORT8648DONATI LORENZOFACTORY TEAM BATTIFOLLE02:50:30 00:45:48 10.744 01:21:34 01:28:56
6868ELITE SPORT9485FILISTINI STEFANOTRIONO RACING MEDICAL FREM02:50:48 00:46:06 10.796 01:22:35 01:28:13
6969M310452ROSSI ALESSIOMTB MONTEFIASCONE02:52:06 00:47:24 11.016 01:23:38 01:28:28
7070ELITE SPORT10194MONTI FABIOCASTELTROSINO SUPERBIKE02:52:11 00:47:29 11.030 01:23:08 01:29:03
7171M412106COZZARI GERMANOUC PETRIGNANO ASD02:52:41 00:47:59 11.114 01:23:10 01:29:31
7272M112264SPINI STEFANOUMBERTIDE CYCLING TEAM02:53:10 00:48:28 11.195 01:20:01 01:33:09
7373M63158GUERRA PAOLOASD BEST BIKE02:53:34 00:48:52 11.261 01:22:08 01:31:26
7474M413464RENZI GABRIELEACIDO LATTICO MTB PASSO CORESE ASD02:53:36 00:48:54 11.267 01:23:10 01:30:26
7575M113177MARCHETTINI MATTEOTRIONO RACING MEDICAL FREM02:54:27 00:49:45 11.407 01:22:26 01:32:01
7676M41452AGOSTINI ULDERICOMTB CLUB SPOLETO02:54:42 00:50:00 11.448 01:20:58 01:33:44
7777M28461SPAGAGNO MARCOACIDO LATTICO MTB PASSO CORESE ASD02:54:48 00:50:06 11.464 01:22:43 01:32:05
7878ELITE SPORT11651PINK MATTEOFACTORY TEAM BATTIFOLLE02:54:55 00:50:13 11.483 01:18:28 01:36:27
7979M11464BARBANERA DIEGOASD MTB CASTIGLIONE DEL LAGO02:54:59 00:50:17 11.494 01:21:44 01:33:15
8080ELITE SPORT12241RIGHETTI FEDERICOGS TESTI CICLI ASD02:55:01 00:50:19 11.499 01:19:31 01:35:30
8181M115640MASTROPAOLO SIMONEAPD CIOCIARIA BIKE02:55:07 00:50:25 11.516 01:21:37 01:33:30
8282M29121FARINELLI PAOLOUC PETRIGNANO ASD02:55:28 00:50:46 11.572 01:24:10 01:31:18
8383M59239RAGNI WALTERMOUNTAN BIKE CLUB RIETI02:55:36 00:50:54 11.594 01:24:14 01:31:22
8484JUNIOR M320LOCCI MATTIAA.S.D. TEAM BIKE MIRANDA02:56:21 00:51:39 11.715 01:19:45 01:36:36
8585M510644PELO MASSIMILIANOTUTTO BIKE TEAM KONA02:56:37 00:51:55 11.758 01:25:04 01:31:33
8686M511176MARCHEGGIANI CESAREDIEFFE BIKE TEAM02:57:35 00:52:53 11.911 01:22:29 01:35:06
8787M311137GENTILI ANDREAASD FARAM CYCLING TEAM02:57:48 00:53:06 11.946 01:26:04 01:31:44
8888M415277ZANCHI ROBERTORUOTA LIBERA ASD02:57:52 00:53:10 11.956 01:22:45 01:35:07
8989M416486BRANCHINELLI MATTEOTRIONO RACING MEDICAL FREM02:58:12 00:53:30 12.008 01:23:11 01:35:01
9090M64142GIANNELLI WALTERCASTELTROSINO SUPERBIKE02:58:22 00:53:40 12.035 01:24:16 01:34:06
9191M312489IACOBINI MAUROA.S.D. SANTA MARINELLA02:58:32 00:53:50 12.061 01:23:55 01:34:37
9292M116653SPERANZA MANUELA.S.D. TEMERARI TIVOLI02:58:48 00:54:06 12.102 01:22:45 01:36:03
9393M210191MISCIO DAMIANOLAKE BIKE TEAM ASD02:58:55 00:54:13 12.121 01:18:01 01:40:54
9494M417455LAUDATI WALTERFARAM CYCLING TEAM02:59:00 00:54:18 12.134 01:25:50 01:33:10
9595M418165LIPPI MICHELEASD VELO CLUB RACING ASSISI BASTIA03:00:04 00:55:22 12.299 01:25:07 01:34:57
9696M512152GORIETTI MARCOUC PETRIGNANO ASD03:00:33 00:55:51 12.373 01:15:06 01:45:27
9797M65479FACCHINI VINCENZOTEAM PALOMBARA SABINA03:00:42 00:56:00 12.396 01:23:22 01:37:20
9898M513229PISTELLA ANTONIOASD LARIS BIKE03:00:54 00:56:12 12.426 01:26:04 01:34:50
9999M OVER1484SARTI STEFANOTRIONO RACING MEDICAL FREM03:01:00 00:56:18 12.441 01:25:15 01:35:45
100100M313639PETRONGELLI IVOASD FIREFOX TEAM AMASENO03:01:01 00:56:19 12.444 01:28:11 01:32:50
101101M314197MOSCIONI ALESSIOUMBERTIDE CYCLING TEAM03:01:20 00:56:38 12.492 01:23:37 01:37:43
102102M315153GRANTURCHELLI LORENZOUMBERTIDE CYCLING TEAM03:01:20 00:56:38 12.492 01:26:00 01:35:20
1031W21493LIPPI CRISTIANACICLISSIMO BIKE TEAM03:01:29 00:56:47 12.515 01:27:59 01:33:30
104103ELITE SPORT13283CAPPELLETTI SIMONEASD LIKE BRACCIANO BIKE03:02:00 00:57:18 12.593 01:27:24 01:34:36
105104M316265SPOSINI FEDERICOASD MTB CASTIGLIONE DEL LAGO03:02:35 00:57:53 12.680 01:21:05 01:41:30
106105M317631NATALI ANDREAAVIS BIKE CINGOLI03:03:04 00:58:22 12.753 01:25:32 01:37:32
107106M514184MARIUCCI LUCAASD CUCCO IN BIKE03:03:28 00:58:46 12.812 01:28:34 01:34:54
108107M318463FESTUCCIA DANIELEACIDO LATTICO MTB PASSO CORESE ASD03:03:35 00:58:53 12.829 01:26:17 01:37:18
109108M319469LUCENTINI ALESSANDROASD BRICTENSE CICLISMO03:03:42 00:59:00 12.847 01:29:29 01:34:13
110109M41996CIARMA FABRIZIOCASTELTROSINO SUPERBIKE03:04:10 00:59:28 12.915 01:28:27 01:35:43
111110M420259SERGIACOMI MASSIMOCASTELTROSINO SUPERBIKE03:04:14 00:59:32 12.925 01:27:06 01:37:08
112111M320107CREZZINI EMANUELEASD LARIS BIKE03:04:16 00:59:34 12.930 01:25:45 01:38:31
113112M321480DI CARLO PIERINOTEAM PALOMBARA SABINA03:04:30 00:59:48 12.964 01:25:42 01:38:48
114113M211255SCARPONI CLAUDIOMTB CLUB SPOLETO03:04:36 00:59:54 12.979 01:24:51 01:39:45
115114M66482OTTAVIANI CLAUDIOASD TEAM PALOMBARA SABINA (CSI)03:05:22 01:00:40 13.091 01:25:12 01:40:10
116115M515145GIGLIARELLI CLAUDIOUMBERTIDE CYCLING TEAM03:05:28 01:00:46 13.105 01:27:49 01:37:39
117116M322157GRIIMANI MARCOMTB CLUB SPOLETO03:05:36 01:00:54 13.124 01:26:47 01:38:49
118117M21268BENEDETTI ALESSANDROMTB CLUB SPOLETO03:05:38 01:00:56 13.129 01:26:47 01:38:51
119118M323192MONACELLI GIUSEPPEAVIS BIKE CINGOLI03:06:09 01:01:27 13.204 01:26:42 01:39:27
120119ELITE SPORT14219PETRELLI GLAUCOCASTELTROSINO SUPERBIKE03:06:13 01:01:31 13.213 01:24:12 01:42:01
121120M516477TOCCACELI MASSIMOTEAM PALOMBARA SABINA03:07:53 01:03:11 13.451 01:30:33 01:37:20
122121M517199NAPOLINI FRANCOMTB CLUB SPOLETO03:08:00 01:03:18 13.468 01:31:37 01:36:23
123122M42178BORRAZZA MICHELEGS TESTI CICLI ASD03:08:48 01:04:06 13.580 01:28:15 01:40:33
124123M OVER259ANGELETTI PIEROTEAM BIKE MIRANDA03:08:51 01:04:09 13.587 01:29:22 01:39:29
125124M422462D'ASCENZI ALBERTOACIDO LATTICO MTB PASSO CORESE ASD03:09:18 01:04:36 13.650 01:28:25 01:40:53
126125M518123FERRETTI ENZOALL MOUNTAIN FOLIGNO03:09:26 01:04:44 13.668 01:29:08 01:40:18
127126M324637MEZZANOTTE ANTONIOASD CUSTOM4.IT CYCLING TEAM03:10:14 01:05:32 13.779 01:30:40 01:39:34
128127ELITE SPORT15189MESCHINI ANDREAASD VELO CLUB RACING ASSISI BASTIA03:10:35 01:05:53 13.827 01:26:35 01:44:00
129128ELITE SPORT16236PROIETTI CARLOASD BICI CLUB SPOLETO CASTELLANI IMPIANTI03:10:56 01:06:14 13.875 01:20:41 01:50:15
130129M519459DI GIOVANNI PIETROA.S.D. SANTA MARIA DELLE MOLE03:11:07 01:06:25 13.900 01:31:15 01:39:52
131130M325642CAPASSO MARCOAPD CIOCIARIA BIKE03:11:59 01:07:17 14.018 01:24:22 01:47:37
132131M520237PROIETTI GILBERTOGS AVIS AMELIA ASD03:12:16 01:07:34 14.056 01:27:52 01:44:24
133132M52198CICIONI GIULIANOMOUNTAN BIKE CLUB RIETI03:12:17 01:07:35 14.059 01:32:25 01:39:52
1342W11295COSTANTINI FABIA ROMANATEAM BIKE PALOMBARA SABINA03:14:06 01:09:24 14.301 01:28:34 01:45:32
135133M423234PRESCIUTTI MATTEOGS TESTI CICLI ASD03:14:15 01:09:33 14.321 01:29:16 01:44:59
136134M117272VALERI FABIOMOUNTAN BIKE CLUB RIETI03:14:43 01:10:01 14.383 01:28:18 01:46:25
137135M42481BUONO ANDREAASD VELO CLUB RACING ASSISI BASTIA03:15:06 01:10:24 14.433 01:26:37 01:48:29
138136M326262SPEZIALI JURIASD VELO CLUB RACING ASSISI BASTIA03:15:08 01:10:26 14.437 01:32:23 01:42:45
139137M425655SALVATORE PAOLOPRO BIKE RIDING TEAM03:15:20 01:10:38 14.464 01:33:08 01:42:12
140138M32769BERARDI GIORGIOVELO CLUB CICLI CINGOLANI ASD03:16:50 01:12:08 14.658 01:32:35 01:44:15
141139M426144GIATTI ROSSANOASD IT AUCTION TEAM03:17:24 01:12:42 14.731 01:28:37 01:48:47
142140M118143GIANNETTI ELIACASTELTROSINO SUPERBIKE03:17:54 01:13:12 14.795 01:28:29 01:49:25
143141ELITE SPORT17230POLI ANDREACASTELTROSINO SUPERBIKE03:17:55 01:13:13 14.797 01:28:30 01:49:25
144142M OVER3636CAPOCCIA MARIOTEAM BIKE AT M.ROTONDO CL MONTANINI03:18:03 01:13:21 14.814 01:34:48 01:43:15
145143M213652CENCI DAVIDEA.S.D. TEMERARI TIVOLI03:18:16 01:13:34 14.841 01:28:31 01:49:45
146144M214492TIZI LUCAMTB SPOLETO03:19:05 01:14:23 14.945 01:30:54 01:48:11
147145M215180MARINI DAVIDECASTELTROSINO SUPERBIKE03:19:59 01:15:17 15.057 01:32:27 01:47:32
148146ELITE SPORT1857AMELI GERARDOCASTELTROSINO SUPERBIKE03:20:03 01:15:21 15.066 01:31:26 01:48:37
149147JUNIOR M417FEDERICI SIMONECASTELTROSINO SUPERBIKE03:20:04 01:15:22 15.068 01:25:53 01:54:11
150148M67113DE SANTIS DARIOCASTELTROSINO SUPERBIKE03:21:20 01:16:38 15.225 01:34:27 01:46:53
1513W12261SOPRANZI LAURAASD SC CENTRO BICI TEAM TERNI03:21:31 01:16:49 15.247 01:34:55 01:46:36
152149M68478BENEDETTI SERGIOTEAM BIKE PALOMBARA03:21:40 01:16:58 15.266 01:33:38 01:48:02
153150M69172MANCINI UGOSC PARLESCA TEAM MOTORPOINT03:22:02 01:17:20 15.311 01:31:42 01:50:20
154151M216633BOFFELLI FRANCESCODILETTANTISTICA CICLI ROSSI03:23:02 01:18:20 15.432 01:36:28 01:46:34
155152M610160LANCIA LEONARDOMTB CLUB SPOLETO03:23:16 01:18:34 15.460 01:34:57 01:48:19
156153M522240RAGUGINI ANGELO PIOAVIS GUALDO TADINO03:23:44 01:19:02 15.517 01:34:16 01:49:28
157154M21794CHIERCHINI MARCOASD LARIS BIKE03:25:19 01:20:37 15.705 01:30:24 01:54:55
158155M427175MARANI MARCOGS TESTI CICLI ASD03:26:00 01:21:18 15.786 01:37:12 01:48:48
159156M11954ALUNNI GIORGIOUMBERTIDE CYCLING TEAM03:26:22 01:21:40 15.829 01:33:29 01:52:53
160157M428233POSSENTI FABIODISLIVELLO CAMP ASD03:27:01 01:22:19 15.905 01:32:33 01:54:28
161158M218204NOTTOLI ALESSIOUMBERTIDE CYCLING TEAM03:27:30 01:22:48 15.961 01:31:32 01:55:58
162159M523181MARIOLI DANILOCICLOCLUB DERUTA03:27:59 01:23:17 16.017 01:34:28 01:53:31
163160M429296LIUZZI ALESSSANDROGS GRIFO BIKE PERUGIA ASD03:29:00 01:24:18 16.133 - 03:29:00
164161M430170MACELLARI MAURIZIOASD LA BASE MTB CLUB TERNI03:32:42 01:28:00 16.549 01:38:22 01:54:20
165162M524173MARABISSI FRANCESCOASD LARIS BIKE03:32:48 01:28:06 16.560 01:38:01 01:54:47
166163M328278ZANNOLI PAOLOMTB CLUB SPOLETO03:33:06 01:28:24 16.593 01:41:56 01:51:10
1674W13289DI LORENZO SABRINAA.S.D. DI LORENZO03:34:05 01:29:23 16.700 01:37:43 01:56:22
168164M431476LOPS VITOTEAM PALOMBARA SABINA03:34:44 01:30:02 16.771 01:37:04 01:57:40
169165M219129PADIGLIONI FEDERICOFREEBIKE MARSCIANO ASD03:35:51 01:31:09 16.891 01:34:40 02:01:11
170166M329451BISSICHINI ALESSANDROMTB MONTEFIASCONE03:36:28 01:31:46 16.957 01:39:54 01:56:34
171167M611275VIOLA ERNESTOCICLOTURISTICA MASSA MARTANA03:36:32 01:31:50 16.964 01:33:10 02:03:22
172168M525481FIORENTINI GASTONEASD TEAM PALOMBARA SABINA (CSI)03:37:11 01:32:29 17.033 01:38:33 01:58:38
173169M OVER4221PETRIOLI GIAMPAOLOMTB CLUB SPOLETO03:37:32 01:32:50 17.070 01:43:08 01:54:24
174170ELITE SPORT19232POLI ROBERTOCASTELTROSINO SUPERBIKE03:38:05 01:33:23 17.128 01:31:22 02:06:43
175171M120119ELEUTERI DOMENICOCASTELTROSINO SUPERBIKE03:38:12 01:33:30 17.140 01:35:54 02:02:18
176172M61283CALZOLARI CLAUDIOUC PETRIGNANO ASD03:38:41 01:33:59 17.190 01:37:21 02:01:20
177173M330136GASPARI EMILIOCASTELTROSINO SUPERBIKE03:39:50 01:35:08 17.310 01:45:09 01:54:41
178174M220161LATINI ANDREACASTELTROSINO SUPERBIKE03:39:50 01:35:08 17.310 01:44:58 01:54:52
179175M526125FILONZI FABRIZIOASD IT AUCTION TEAM03:40:33 01:35:51 17.383 01:43:19 01:57:14
180176M432659MEMELLA MOMELLI STEFANOG.S. TESTI CICLI A.S.D.03:40:57 01:36:15 17.424 01:43:07 01:57:50
181177M433267TARDOCCHI MASSIMILIANOMTB CLUB SPOLETO03:41:51 01:37:09 17.516 01:42:07 01:59:44
182178M331494BARTOLUCCI FRANCESCOTRIONO RACING MEDICAL FREM03:41:51 01:37:09 17.516 01:37:15 02:04:36
183179M121130FOGLIANI AMEDEOFREEBIKE MARSCIANO ASD03:42:28 01:37:46 17.578 01:39:47 02:02:41
184180M613654MELA MASSIMOTRIONO RACING MEDICAL FREM03:43:44 01:39:02 17.705 01:37:18 02:06:26
185181M221174MARAMIGI ALESSANDROASD MC2 BIKE03:44:23 01:39:41 17.770 01:44:49 01:59:34
186182M527495LO SCALZO ADRIANOA.S.D. MTB RUOTE MATTE CECCANO03:45:30 01:40:48 17.880 01:40:24 02:05:06
187183M332641CECCONI STEFANOAPD CIOCIARIA BIKE03:45:31 01:40:49 17.881 01:47:29 01:58:02
188184M122244RITI RICCARDOCASTELTROSINO SUPERBIKE03:45:55 01:41:13 17.921 01:45:14 02:00:41
1895W14187MAZZORANA SARATEAM BIKE MIRANDA03:46:05 01:41:23 17.937 01:39:50 02:06:15
190185M333226PIEROSARA MARCOBLU VELO ASD03:46:41 01:41:59 17.995 01:40:12 02:06:29
191186M123206OTTONI FABIOCASTELTROSINO SUPERBIKE03:47:13 01:42:31 18.047 01:44:25 02:02:48
192187M334271TRABALZA CRISTIANOPOPPINS BIKE03:47:49 01:43:07 18.105 01:41:44 02:06:05
193188M434251SALSERI PERLUIGIDISLIVELLO CAMP ASD03:50:03 01:45:21 18.317 01:44:04 02:05:59
194189M52853ALIMENTI GIANLUIGIMTB CLUB SPOLETO03:50:03 01:45:21 18.317 01:47:33 02:02:30
195190M335657POSSENTI DANILOASD BIKE RIDERS SABINI03:50:05 01:45:23 18.320 01:49:01 02:01:04
196191M52991CERQUAGLIA MARIOUC PETRIGNANO ASD03:52:08 01:47:26 18.512 02:01:42 01:50:26
197192M336646BALDASSARRI CLAUDIOCICLO CLUB DERUTA03:52:27 01:47:45 18.541 01:54:09 01:58:18
198193ELITE SPORT2088CENTINI LEONARDOASD MC2 BIKE03:52:53 01:48:11 18.581 01:44:54 02:07:59
199194M222643MENCARELLI ROBERTOASD LARIS BIKE03:53:48 01:49:06 18.665 01:42:56 02:10:52
200195M435148GIOVANNACCI ANDREAPOPPINS BIKE03:54:41 01:49:59 18.745 01:41:42 02:12:59
201196M124456RINALDI STEFANOAICS03:55:00 01:50:18 18.774 01:40:52 02:14:08
2026W15171MAIOTTI MARINACICLOCLUB DERUTA03:55:07 01:50:25 18.785 01:50:53 02:04:14
203197M530645BONAMICI GIANNIASD VERAG PRATO EST03:55:09 01:50:27 18.788 01:50:11 02:04:58
204198M125208PANNAIOLI MATTEOCICLOCLUB DERUTA03:55:10 01:50:28 18.789 01:43:56 02:11:14
205199M614216PERELLA GIOVANNIGS TESTI CICLI ASD03:55:11 01:50:29 18.791 01:48:02 02:07:09
206200M126656PISCITELLI MARIOASSOCIAZIONE MTB SCANNO04:00:34 01:55:52 19.265 01:48:04 02:12:30
207201ELITE SPORT21141GIAMPICCOLO LUCAMTB CLUB SPOLETO04:03:24 01:58:42 19.506 01:41:26 02:21:58
208202M436120ELEUTERI MAUROMTB CLUB SPOLETO04:04:41 01:59:59 19.614 02:11:27 01:53:14
209203JUNIOR M516ELEUTERI STEFANOMTB CLUB SPOLETO04:04:48 02:00:06 19.624 02:11:14 01:53:34
210204M OVER5483FREGONESE CARLOTEAM BIKE PALOMBARA SABINA04:05:08 02:00:26 19.651 01:52:04 02:13:04
211205M531470BISONNI MARCOASD TEAM BIKE MIRANDA04:06:46 02:02:04 19.786 01:50:10 02:16:36
212206ELITE SPORT22139GENTILI FABIOCASTELTROSINO SUPERBIKE04:08:29 02:03:47 19.926 01:59:38 02:08:51
213207M437638PEA FABIOASD CUSTOM 4 TEAM04:08:30 02:03:48 19.927 01:53:57 02:14:33
214208M438453GABRIELLI GIULIANOPRO TEAM EUROBICI ORVIETO04:09:32 02:04:50 20.010 01:49:51 02:19:41
215209ELITE SPORT23224PEZZOTTI GABRIELEMOUNTAN BIKE CLUB RIETI04:09:42 02:05:00 20.024 01:51:06 02:18:36
216210M532103COLOMBO DAVIDEMOUNTAN BIKE CLUB RIETI04:10:32 02:05:50 20.090 01:39:25 02:31:07
217211M33779BORZACCHIELLO GIUSEPPEFREEBIKE MARSCIANO ASD04:10:43 02:06:01 20.105 01:52:20 02:18:23
2187W22465D'ELISO ANNALISAASD MA.AN.RT04:11:46 02:07:04 20.188 01:56:49 02:14:57
219212M223227PIETRI ALESSIOPOPPINS BIKE04:11:51 02:07:09 20.194 01:48:54 02:22:57
220213M338658TAVOLACCI NICOLO'ASD IRON BIKE04:14:52 02:10:10 20.428 01:56:15 02:18:37
221214M127660PANCRAZI GIAN MARCOA.S.D. AQUILE TUDERTI04:20:36 02:15:54 20.859 01:51:19 02:29:17
222215M339116DIONISI MASSIMILIANOASD FARAM CYCLING TEAM04:23:53 02:19:11 21.097 01:56:50 02:27:03
223216M224253SANZARI VITTORIOMTB CLUB SPOLETO04:33:41 02:28:59 21.774 01:53:43 02:39:58
224217M225260SEVERINI ALESSIOUMBERTIDE CYCLING TEAM04:35:58 02:31:16 21.925 01:52:58 02:43:00
225218M128135GALLI MARINOCASTELTROSINO SUPERBIKE06:00:00 03:55:18 26.144 01:24:12 04:35:48
226219M43970BIANCHINI DONATELLOASD MTB CASTIGLIONE DEL LAGO06:00:00 03:55:18 26.144 - 06:00:00
2278W2355ALUNNO PAOLAFREEBIKE MARSCIANO ASD06:00:00 03:55:18 26.144 02:17:02 03:42:58
228220M12984CAMELI EMIDIOCASTELTROSINO SUPERBIKE06:00:00 03:55:18 26.144 01:59:34 04:00:26
229221ELITE SPORT24151GLADIOLI SIMONECASTELTROSINO SUPERBIKE06:00:00 03:55:18 26.144 01:04:39 04:55:21
230222M OVER6487FAINA GRAZIANOTRIONO RACING MEDICAL FREM06:00:00 03:55:18 26.144 01:52:06 04:07:54
2319W16218PERUGINI ROMINAUMBERTIDE CYCLING TEAM06:00:00 03:55:18 26.144 - 06:00:00
Righe per pagina::     TUTTE    |   30   |   50   |   100   Pagina:   | 1 | | 2 | | 3 | | 4 | | 5 |